Station BUFN6 - 9063020 - Buffalo, NY Image indicating link to RSS feed of recent meteorological observations for station BUFN6


Conditions at BUFN6 as of
(2:48 pm EDT)
1848 GMT on 04/19/2024:
     

Click on the graph icon in the table below to see a time series plot of the last five days of that observation.

5-day plot - Wind Direction Wind Direction (WDIR): SW ( 220 deg true )
5-day plot - Wind Speed Wind Speed (WSPD): 17.1 kts
5-day plot - Wind Gust Wind Gust (GST): 22.0 kts
5-day plot - Atmospheric Pressure Atmospheric Pressure (PRES):29.84 in
5-day plot - Air Temperature Air Temperature (ATMP): 46.9 °F
5-day plot - Water Temperature Water Temperature (WTMP): 48.9 °F
5-day plot - Dew Point Dew Point (DEWP): 45.3 °F
5-day plot - Wind Chill Wind Chill (CHILL): 39.6 °F
5-day plot - Wind Speed at 10 Meters Wind Speed at 10 meters (WSPD10M): 17.5 kts
5-day plot - Wind Speed at 20 Meters Wind Speed at 20 meters (WSPD20M): 19.4 kts
5-day plot -  Wind Speed, Wind Gust and Atmospheric Pressure Combined plot of Wind Speed, Gust, and Air Pressure
NOS Water Level Observation Network Water Level
Previous observations
TIME
(EDT)
5-day plot - Wind Direction
WDIR
 
5-day plot - Wind Speed
WSPD
kts
5-day plot - Wind Gust
GST
kts
5-day plot - Wave Height
WVHT
ft
5-day plot - Dominant Wave Period
DPD
sec
5-day plot - Average Wave Period
APD
sec
5-day plot - Mean Wave Direction
MWD
 
5-day plot - Atmospheric Pressure
PRES
in
5-day plot - Pressure Tendency
PTDY
in
5-day plot - Air Temperature
ATMP
°F
5-day plot - Water Temperature
WTMP
°F
5-day plot - Dew Point
DEWP
°F
5-day plot - Salinity
SAL
psu
5-day plot - Visibility
VIS
nmi
5-day plot - Tide (above MLLW)
TIDE
ft
2024-04-19 02:42 pmSSW 15.0 21.0----29.84- 46.8 48.7 45.1---
2024-04-19 02:36 pm SW 17.1 22.9----29.84- 46.4 48.9 45.1---
2024-04-19 02:30 pm SW 15.0 22.9----29.84- 46.4 48.9 45.0---
2024-04-19 02:24 pmSSW 17.1 22.0----29.84- 46.4 48.7 45.1---
2024-04-19 02:18 pm SW 15.0 20.0----29.84- 46.2 48.7 45.0---
2024-04-19 02:12 pm SW 15.0 20.0----29.83- 46.4 48.7 45.1---
2024-04-19 02:06 pmSSW 14.0 21.0----29.83- 46.2 48.7 45.0---
2024-04-19 02:00 pm SW 12.0 15.9----29.83+0.05 46.6 48.7 45.1---
2024-04-19 01:54 pm SW 13.0 15.9----29.83- 46.9 48.7 45.3---
2024-04-19 01:48 pm SW 14.0 17.1----29.82- 47.1 48.7 45.1---
2024-04-19 01:42 pm SW 13.0 17.1----29.82- 47.3 48.7 45.5---
2024-04-19 01:36 pm SW 13.0 15.9----29.81- 47.5 48.9 45.5---
2024-04-19 01:30 pmWSW 15.0 17.1----29.81- 47.7 48.9 45.7---
2024-04-19 01:24 pm SW 15.0 19.0----29.81- 48.0 48.7 45.7---
2024-04-19 01:18 pmWSW 18.1 22.9----29.81- 48.7 48.7 45.9---
2024-04-19 01:12 pmWSW 20.0 24.1----29.81- 49.6 48.7 46.2---
2024-04-19 01:06 pmWSW 17.1 21.0----29.81- 50.0 48.7 46.2---
2024-04-19 01:00 pm SW 17.1 20.0----29.81+0.03 50.4 48.7 46.4---
2024-04-19 12:54 pmWSW 11.1 12.0----29.80- 48.4 48.9 45.1---
2024-04-19 12:48 pm SW 11.1 13.0----29.80- 48.7 48.9 45.1---
2024-04-19 12:42 pm SW 11.1 12.0----29.80- 48.9 48.9 45.1---
2024-04-19 12:36 pm SW 9.9 12.0----29.80- 49.3 48.9 45.3---
2024-04-19 12:30 pm SW 8.0 9.9----29.80- 49.5 48.7 45.5---
2024-04-19 12:24 pm SW 8.9 9.9----29.79- 49.5 48.7 45.3---
2024-04-19 12:18 pm SW 7.0 8.9----29.79- 50.0 48.9 45.7---
2024-04-19 12:12 pm SW 7.0 8.0----29.79- 50.7 48.9 45.9---
2024-04-19 12:06 pm SW 8.0 9.9----29.79- 50.9 48.7 46.0---
2024-04-19 12:00 pmWSW 9.9 12.0----29.79-0.03 50.2 48.7 46.0---
2024-04-19 11:54 amWSW 9.9 11.1----29.79- 49.6 48.7 45.5---
2024-04-19 11:48 amWSW 8.9 9.9----29.78- 50.7 48.7 46.0---
2024-04-19 11:42 amWSW 7.0 7.0----29.78- 51.3 48.7 46.2---
2024-04-19 11:36 am SW 6.0 7.0----29.78- 52.0 48.9 46.8---
2024-04-19 11:30 amSSW 6.0 7.0----29.78- 52.3 48.9 46.8---
2024-04-19 11:24 amSSW 5.1 6.0----29.78- 52.3 48.9 46.8---
2024-04-19 11:18 amSSW 5.1 6.0----29.78- 52.2 49.1 46.8---
2024-04-19 11:12 am S 5.1 8.9----29.78- 52.0 49.3 46.6---
2024-04-19 11:06 am S 8.9 12.0----29.77- 53.2 49.3 46.9---
2024-04-19 11:00 am S 11.1 12.0----29.78-0.08 54.3 49.3 46.9---
2024-04-19 10:54 am S 9.9 13.0----29.78- 54.3 49.3 46.9---
2024-04-19 10:48 amSSE 8.9 13.0----29.78- 55.2 49.3 47.3---
2024-04-19 10:42 am SE 11.1 15.0----29.77- 56.3 49.3 48.0---
2024-04-19 10:36 am SE 9.9 12.0----29.77- 55.9 49.5 48.6---
2024-04-19 10:30 am SE 8.9 11.1----29.77- 55.8 49.5 48.9---
2024-04-19 10:24 amESE 7.0 9.9----29.77- 55.6 49.5 49.1---
2024-04-19 10:18 am SE 8.0 9.9----29.78- 55.2 49.5 49.1---
2024-04-19 10:12 am SE 7.0 9.9----29.78- 55.0 49.5 48.6---
2024-04-19 10:06 amSSE 8.0 11.1----29.79- 55.6 49.5 48.4---
2024-04-19 10:00 amESE 6.0 9.9----29.78-0.04 55.4 49.1 48.6---
2024-04-19 09:54 amESE 5.1 8.0----29.78- 55.2 49.1 48.6---
2024-04-19 09:48 am SE 6.0 8.9----29.79- 55.6 48.9 48.2---
2024-04-19 09:42 amESE 6.0 11.1----29.78- 55.6 48.9 48.0---
2024-04-19 09:36 am E 6.0 9.9----29.77- 55.9 48.9 47.5---
2024-04-19 09:30 amESE 7.0 9.9----29.80- 55.8 49.1 47.8---
2024-04-19 09:24 amESE 6.0 8.0----29.80- 55.2 49.6 48.4---
2024-04-19 09:18 amESE 4.1 7.0----29.81- 55.0 50.0 48.2---
2024-04-19 09:12 amESE 4.1 5.1----29.80- 54.9 49.6 48.4---
2024-04-19 09:06 am SE 5.1 5.1----29.82- 54.5 49.5 47.8---
2024-04-19 09:00 am E 4.1 7.0----29.82-0.04 54.1 49.5 47.7---
2024-04-19 08:54 am N 2.9 5.1----29.81- 53.6 49.5 47.3---
2024-04-19 08:48 am SE 5.1 6.0----29.84- 53.2 49.5 46.6---
2024-04-19 08:42 amSSE 6.0 8.0----29.84- 53.4 49.8 46.2---
2024-04-19 08:36 am S 7.0 9.9----29.84- 54.0 50.2 45.9---
2024-04-19 08:30 amSSE 8.0 11.1----29.84- 53.8 50.5 45.9---
2024-04-19 08:24 am S 9.9 14.0----29.84- 54.5 50.7 45.7---
2024-04-19 08:18 am S 8.9 15.9----29.83- 55.8 50.9 45.7---
2024-04-19 08:12 am SE 4.1 5.1----29.83- 52.7 50.9 46.4---
2024-04-19 08:06 amENE 1.9 2.9----29.85- 51.1 50.9 46.0---
2024-04-19 08:00 amNNE 1.9 2.9----29.85-0.04 50.4 50.9 45.7---
2024-04-19 07:54 am- 0.0 1.0----29.86- 49.8 51.1 45.1---
2024-04-19 07:48 am- 0.0 1.0----29.86- 50.2 50.5 45.1---
2024-04-19 07:42 am SE 1.9 1.9----29.86- 50.2 50.4 45.5---
2024-04-19 07:36 am- 0.0 1.0----29.86- 50.4 50.2 45.3---
2024-04-19 07:30 am W 1.0 2.9----29.85- 50.9 49.8 45.3---
2024-04-19 07:24 am- 0.0 1.0----29.85- 51.1 49.3 45.3---
2024-04-19 07:18 am E 1.0 5.1----29.84- 50.9 49.5 45.3---
2024-04-19 07:12 am E 5.1 8.0----29.82- 50.7 49.5 45.1---
2024-04-19 07:06 am E 6.0 8.9----29.81- 50.7 49.5 45.1---
2024-04-19 07:00 am E 8.0 11.1----29.81-0.12 50.7 49.5 45.0---
2024-04-19 06:54 am E 7.0 9.9----29.81- 50.4 49.8 45.0---
2024-04-19 06:48 am E 7.0 8.0----29.82- 50.0 50.2 44.8---
2024-04-19 06:42 am E 5.1 9.9----29.82- 50.0 50.2 44.8---
2024-04-19 06:36 am E 7.0 9.9----29.83- 50.0 50.2 44.8---
2024-04-19 06:30 am E 7.0 9.9----29.83- 49.8 50.2 44.6---
2024-04-19 06:24 am E 8.0 11.1----29.83- 49.8 50.2 44.6---
2024-04-19 06:18 am E 7.0 9.9----29.84- 49.6 50.2 44.6---
2024-04-19 06:12 am E 7.0 9.9----29.85- 48.9 50.0 44.2---
2024-04-19 06:06 am E 7.0 9.9----29.85- 48.9 49.8 44.4---
2024-04-19 06:00 am E 7.0 9.9----29.86-0.09 48.4 49.8 44.1---
2024-04-19 05:54 am E 6.0 8.9----29.86- 48.6 50.2 44.2---
2024-04-19 05:48 am E 8.0 9.9----29.86- 48.6 50.5 44.2---
2024-04-19 05:42 am E 7.0 9.9----29.87- 48.2 50.2 43.9---
2024-04-19 05:36 am E 7.0 8.9----29.87- 48.7 50.2 44.2---
2024-04-19 05:30 am E 7.0 9.9----29.87- 48.6 50.4 44.1---
2024-04-19 05:24 am E 7.0 8.0----29.88- 48.0 50.7 44.1---
2024-04-19 05:18 am E 6.0 7.0----29.89- 47.3 50.5 43.7---
2024-04-19 05:12 am E 5.1 7.0----29.89- 46.9 50.4 43.5---
2024-04-19 05:06 am E 5.1 8.0----29.90- 46.8 50.5 43.5---
2024-04-19 05:00 am E 4.1 8.0----29.90-0.07 46.8 49.8 43.5---
2024-04-19 04:54 am E 5.1 8.0----29.90- 46.6 50.2 43.3---
2024-04-19 04:48 am E 5.1 8.0----29.90- 46.6 50.5 43.3---
2024-04-19 04:42 am E 6.0 8.0----29.91- 46.6 50.2 43.3---
2024-04-19 04:36 am E 6.0 8.0----29.91- 46.6 50.2 43.3---
2024-04-19 04:30 am E 6.0 8.9----29.91- 46.6 50.0 43.3---
2024-04-19 04:24 am E 7.0 9.9----29.91- 46.8 50.2 43.3---
2024-04-19 04:18 am E 6.0 8.0----29.92- 46.8 49.8 43.3---
2024-04-19 04:12 am E 6.0 8.0----29.92- 46.8 50.0 43.3---
2024-04-19 04:06 am E 6.0 8.0----29.93- 46.8 50.5 43.2---
2024-04-19 04:00 am E 5.1 7.0----29.93-0.06 46.8 51.1 43.3---
2024-04-19 03:54 am E 6.0 8.9----29.93- 46.9 51.1 43.3---
2024-04-19 03:48 am E 5.1 7.0----29.93- 46.9 51.1 43.2---
2024-04-19 03:42 am E 5.1 6.0----29.93- 46.9 50.7 43.2---
2024-04-19 03:36 am E 5.1 8.0----29.93- 47.1 50.4 43.3---
2024-04-19 03:30 am E 7.0 8.9----29.93- 47.1 50.4 43.3---
2024-04-19 03:24 am E 6.0 8.0----29.93- 47.1 50.0 43.3---
2024-04-19 03:18 am E 6.0 8.0----29.94- 47.3 50.4 43.3---
2024-04-19 03:12 am E 6.0 8.0----29.94- 47.3 50.7 43.3---
2024-04-19 03:06 am E 5.1 8.0----29.95- 47.5 50.0 43.3---
2024-04-19 03:00 am E 5.1 8.9----29.95-0.06 47.3 50.0 43.3---
2024-04-19 02:54 am E 5.1 8.0----29.95- 47.5 49.8 43.3---
2024-04-19 02:48 am E 5.1 8.0----29.95- 47.5 49.8 43.3---
2024-04-19 02:42 am E 5.1 8.0----29.95- 47.7 50.0 43.3---
2024-04-19 02:36 am E 5.1 7.0----29.96- 47.8 50.2 43.3---
2024-04-19 02:30 am E 4.1 5.1----29.96- 47.8 50.2 43.3---
2024-04-19 02:24 am E 2.9 5.1----29.96- 48.0 50.7 43.3---
2024-04-19 02:18 am E 2.9 4.1----29.97- 48.2 50.9 43.2---
2024-04-19 02:12 am NE 1.9 4.1----29.97- 48.2 51.4 43.3---
2024-04-19 02:06 amENE 1.9 5.1----29.96- 48.2 51.6 43.5---
2024-04-19 02:00 amENE 4.1 5.1----29.97-0.04 48.4 51.4 43.3---
2024-04-19 01:54 amENE 5.1 7.0----29.97- 48.2 51.4 43.3---
2024-04-19 01:48 am E 5.1 6.0----29.97- 48.0 51.6 43.3---
2024-04-19 01:42 am E 5.1 6.0----29.98- 48.2 51.4 43.5---
2024-04-19 01:36 am E 5.1 6.0----29.98- 48.4 51.3 43.7---
2024-04-19 01:30 am E 5.1 6.0----29.98- 48.4 51.4 43.5---
2024-04-19 01:24 am E 5.1 6.0----29.99- 48.4 51.4 43.5---
2024-04-19 01:18 am E 4.1 6.0----29.99- 48.6 51.1 43.5---
2024-04-19 01:12 am E 4.1 5.1----30.00- 48.4 51.1 43.5---
2024-04-19 01:06 am E 5.1 6.0----30.00- 48.4 51.3 43.5---
2024-04-19 01:00 am E 4.1 5.1----30.00-0.02 48.4 50.7 43.5---
2024-04-19 12:54 am E 2.9 5.1----30.00- 48.2 50.5 43.5---
2024-04-19 12:48 am E 2.9 4.1----30.00- 48.2 50.2 43.5---
2024-04-19 12:42 am E 4.1 6.0----30.00- 48.0 49.3 43.5---
2024-04-19 12:36 am E 4.1 5.1----30.00- 48.6 49.6 43.5---
2024-04-19 12:30 am E 2.9 5.1----30.00- 48.6 49.6 43.3---
2024-04-19 12:24 am E 1.9 4.1----30.00- 48.7 50.0 43.3---
2024-04-19 12:18 amENE 2.9 4.1----30.00- 48.6 50.4 43.0---
2024-04-19 12:12 amENE 1.9 2.9----30.01- 48.2 50.9 43.3---
2024-04-19 12:06 am E 2.9 4.1----30.00- 48.2 50.7 43.3---
2024-04-19 12:00 amENE 2.9 4.1----30.01-0.02 48.0 51.1 43.2---
2024-04-18 11:54 pm E 2.9 4.1----30.01- 48.0 51.1 43.2---
2024-04-18 11:48 pm E 2.9 4.1----30.01- 47.8 50.9 43.0---
2024-04-18 11:42 pmESE 1.9 2.9----30.01- 47.8 50.7 43.2---
2024-04-18 11:36 pm E 1.9 1.9----30.01- 48.2 51.1 43.0---
2024-04-18 11:30 pm NE 1.9 2.9----30.01- 48.0 50.9 43.3---
2024-04-18 11:24 pmNNE 1.9 2.9----30.01- 48.0 50.7 43.5---
2024-04-18 11:18 pm N 2.9 2.9----30.02- 47.7 50.7 44.1---
2024-04-18 11:12 pmNNW 1.9 2.9----30.02- 48.0 50.5 43.7---
2024-04-18 11:06 pmNNE 2.9 2.9----30.02- 48.0 51.1 43.7---
2024-04-18 11:00 pmNNE 1.9 2.9----30.01-0.03 47.5 50.5 43.3---
2024-04-18 10:54 pm N 2.9 4.1----30.02- 47.3 50.5 44.4---
2024-04-18 10:48 pm NW 4.1 5.1----30.02- 46.8 50.5 43.7---
2024-04-18 10:42 pm NW 4.1 4.1----30.02- 46.9 50.5 43.3---
2024-04-18 10:36 pmNNW 2.9 4.1----30.02- 47.1 50.9 44.1---
2024-04-18 10:30 pm N 2.9 2.9----30.01- 46.8 50.7 43.9---
2024-04-18 10:24 pmNNW 2.9 4.1----30.02- 46.6 50.7 43.9---
2024-04-18 10:18 pmNNW 4.1 5.1----30.02- 46.6 50.4 44.8---
2024-04-18 10:12 pm NW 5.1 6.0----30.02- 46.2 49.8 44.1---
2024-04-18 10:06 pm NW 4.1 5.1----30.02- 46.8 50.0 43.9---
2024-04-18 10:00 pm- 0.0 1.9----30.02-0.04 48.4 50.2 43.2---
2024-04-18 09:54 pm- 0.0 1.9----30.01- 48.2 49.8 43.2---
2024-04-18 09:48 pmESE 1.9 4.1----30.01- 48.4 49.6 42.6---
2024-04-18 09:42 pm SE 2.9 4.1----30.00- 48.0 49.6 42.6---
2024-04-18 09:36 pm E 1.9 2.9----30.00- 47.3 50.2 42.6---
2024-04-18 09:30 pmESE 2.9 4.1----30.00- 46.8 50.2 43.2---
2024-04-18 09:24 pmESE 2.9 4.1----30.01- 46.2 50.5 43.0---
2024-04-18 09:18 pmESE 2.9 4.1----30.01- 46.0 50.9 43.0---
2024-04-18 09:12 pm E 1.9 2.9----30.02- 45.7 50.7 42.8---
2024-04-18 09:06 pm NE 1.0 1.9----30.03- 45.7 51.1 43.2---
2024-04-18 09:00 pm- 0.0 0.0----30.03-0.03 45.3 50.9 42.8---
2024-04-18 08:54 pm- 0.0 2.9----30.03- 45.3 50.7 43.0---
2024-04-18 08:48 pmSSW 1.9 4.1----30.04- 45.3 51.1 43.2---
2024-04-18 08:42 pm SW 1.9 1.9----30.05- 45.3 51.3 43.0---
2024-04-18 08:36 pm SW 1.9 4.1----30.04- 45.5 51.4 43.3---
2024-04-18 08:30 pm SW 2.9 5.1----30.04- 45.7 52.0 43.2---
2024-04-18 08:24 pmWSW 4.1 4.1----30.04- 45.3 52.3 43.0---
2024-04-18 08:18 pmWSW 2.9 6.0----30.04- 45.3 51.4 43.3---
2024-04-18 08:12 pmWSW 5.1 6.0----30.04- 45.5 51.8 43.3---
2024-04-18 08:06 pmWSW 5.1 6.0----30.04- 45.3 52.2 43.0---
2024-04-18 08:00 pm SW 4.1 5.1----30.04+0.00 45.3 52.5 43.2---
2024-04-18 07:54 pmWSW 5.1 6.0----30.04- 45.3 49.5 43.0---
2024-04-18 07:48 pm W 4.1 5.1----30.05- 45.3 49.6 43.3---
2024-04-18 07:42 pm SW 2.9 5.1----30.05- 45.5 49.6 43.2---
2024-04-18 07:36 pm SW 4.1 8.0----30.05- 45.7 50.0 43.2---
2024-04-18 07:30 pm W 1.9 2.9----30.05- 45.3 50.4 43.3---
2024-04-18 07:24 pmWSW 1.9 2.9----30.05- 45.5 50.9 43.2---
2024-04-18 07:18 pm- 0.0 4.1----30.04- 45.5 51.4 43.5---
2024-04-18 07:12 pmWSW 2.9 4.1----30.05- 45.3 51.4 43.2---
2024-04-18 07:00 pm SW 5.1 6.0----30.05+0.02 45.5 51.6 43.0---
2024-04-18 06:54 pm SW 4.1 6.0----30.05- 45.7 51.4 43.3---
2024-04-18 06:48 pm SW 4.1 6.0----30.05- 45.7 51.8 43.3---
2024-04-18 06:42 pm SW 4.1 5.1----30.05- 45.5 51.6 43.3---
2024-04-18 06:36 pm SW 2.9 5.1----30.05- 45.3 51.4 43.0---
2024-04-18 06:30 pmWSW 5.1 8.9----30.05- 45.3 51.1 42.6---
2024-04-18 06:24 pmSSW 5.1 8.0----30.05- 45.7 51.6 43.0---
2024-04-18 06:18 pmWSW 5.1 6.0----30.05- 45.1 51.3 43.0---
2024-04-18 06:12 pm SW 5.1 6.0----30.05- 45.3 51.4 43.2---
2024-04-18 06:06 pm SW 4.1 6.0----30.05- 45.1 51.3 43.3---
2024-04-18 06:00 pm W 5.1 8.0----30.06+0.03- 50.5----
2024-04-18 05:54 pmWSW 6.0 8.0----30.06-- 50.4----
2024-04-18 05:48 pmWSW 6.0 8.0----30.05- 45.3 50.7 43.3---
2024-04-18 05:42 pmWSW 6.0 8.0----30.05- 45.1 51.4 43.2---
2024-04-18 05:36 pm SW 5.1 8.0----30.05- 45.1 50.2 43.3---
2024-04-18 05:30 pm SW 5.1 8.0----30.05- 45.1 50.9 43.3---
2024-04-18 05:24 pm SW 6.0 9.9----30.05- 45.1 50.2 43.5---
2024-04-18 05:18 pm SW 6.0 8.0----30.05- 45.0 50.0 43.5---
2024-04-18 05:12 pm SW 5.1 9.9----30.05- 45.0 50.7 43.5---
2024-04-18 05:06 pmSSW 7.0 9.9----30.04- 44.8 51.1 43.3---
2024-04-18 05:00 pmWSW 7.0 8.9----30.04+0.03 44.4 50.9 43.0---
2024-04-18 04:54 pmWSW 7.0 12.0----30.04- 45.1 50.5 43.3---
2024-04-18 04:48 pmSSW 11.1 13.0----30.03- 45.0 50.5 43.3---
2024-04-18 04:42 pmSSW 11.1 12.0----30.03- 45.0 50.0 43.2---
2024-04-18 04:36 pmSSW 11.1 14.0----30.03- 45.1 50.4 43.3---
2024-04-18 04:30 pmSSW 8.9 12.0----30.03- 45.3 50.7 43.5---
2024-04-18 04:24 pmSSW 8.0 11.1----30.03- 45.3 50.7 43.5---
2024-04-18 04:18 pm SW 6.0 13.0----30.03- 45.5 50.5 43.7---
2024-04-18 04:12 pmSSW 13.0 15.9----30.03- 45.3 50.7 43.5---
2024-04-18 04:06 pmSSW 12.0 14.0----30.03- 45.3 51.4 43.5---
2024-04-18 04:00 pmSSW 13.0 15.0----30.03+0.02 45.1 50.9 43.3---
2024-04-18 03:54 pmSSW 12.0 13.0----30.03- 45.1 50.5 43.3---
2024-04-18 03:48 pmSSW 9.9 12.0----30.03- 45.3 50.7 43.5---
2024-04-18 03:42 pmWSW 6.0 8.9----30.03- 45.0 51.8 43.5---
2024-04-18 03:36 pmWSW 7.0 8.9----30.03- 45.1 49.1 43.3---
2024-04-18 03:30 pm W 7.0 8.9----30.03- 45.3 49.1 43.5---
2024-04-18 03:24 pm SW 8.0 11.1----30.03- 45.7 49.5 43.7---
2024-04-18 03:18 pm SW 7.0 8.9----30.03- 45.7 50.2 44.1---
2024-04-18 03:06 pm SW 6.0 9.9----30.03- 45.7 50.2 43.9---
2024-04-18 03:00 pmWSW 5.1 6.0----30.02+0.00 45.7 50.2 43.5---
2024-04-18 02:54 pm SW 5.1 6.0----30.02- 45.9 50.4 43.5---